Вернуться в каталог

STARLINK-4283

АктивенСвязьVLEO
NORAD 53016·PAYLOAD·🇺🇸 United States

Запущен Jul 7, 2022 с Cape Canaveral Space Force Station

Loading…

Ближайшие Пролёты (ближайшие 24 часа)

TLE

СвежийSource: CelesTrak SupGP

Эпоха: Sep 14, 2026, 20:54 UTC

1 53016C 22076AG  26257.87131944 -.00012752  00000+0 -41020-3 0  2576
2 53016  53.1568 303.0278 0000924  64.8039 246.2712 15.31697803    11

Отслеживайте STARLINK-4283 в реальном времени с AllMySat

Download on the App Store